User: anonymous   Login
Location: SAPM � Hemmingford
(45.0500°N, 73.5833°W)
Time: 06:23:42
(UTC-04:00)
Language:

Cosmos 1674 Rocket - Orbit

View from above orbital plane
View from above orbital plane
View from above satellite
View from above satellite

Ground track
Ground track

The orbit data is extracted from the following two-line orbital elements,

1 15945U 85069B   17147.58634092 +.00000073 +00000-0 +59157-5 0  9991
2 15945 082.5260 152.3166 0019575 354.9013 005.1999 14.83924117696896
Epoch (UTC): 27 May 2017 14:04:19
Eccentricity: 0.0019575
inclination: 82.5260°
perigee height: 603 km
apogee height: 630 km
right ascension of ascending node: 152.3166°
argument of perigee: 354.9013°
revolutions per day: 14.83924117
mean anomaly at epoch: 5.1999°
orbit number at epoch: 69689

The dashed part of the orbit path shows where the satellite is in the earth's shadow,  

DLR